Home > Weather > Liverpool > Past weeks

Flag for United Kingdom Past Weather in Liverpool, England, United Kingdom — Yesterday and Last 2 Weeks

Now
50 °F

Scattered showers. Passing clouds.


Feels Like: 45 °F
Forecast: 54 / 61 °F
Wind: 13 mph from West

Location: Liverpool Airport

Current Time: Jul 2, 2016 at 3:16:02 AM

Latest Report: Jul 2, 2016 at 2:20 AM


Visibility: N/A

Pressure: 29.71 "Hg

Humidity: 82%

Dew Point: 45 °F

Location of LiverpoolLocation

Past Weather in Liverpool — Graph

°F

Liverpool Temperature Yesterday

Maximum temperature yesterday: 64 °F (at 2:50 PM)
Minimum temperature yesterday: 54 °F (at 5:20 AM)
Average temperature yesterday: 57 °F

High & Low Weather Summary for the Past Weeks

 TemperatureHumidityPressure
High70 °F (Jun 22, 6:20 PM)100% (Jun 17, 4:20 AM)30.21 "Hg (Jun 17, 4:20 AM)
Low50 °F (Jun 28, 4:50 AM)53% (Jun 23, 12:50 PM)29.50 "Hg (Jun 29, 12:50 PM)
Average59 °F81%29.92 "Hg
* Reported Jun 17 2:20 AM — Jul 2 2:20 AM, Liverpool, Weather by CustomWeather, © 2016

Note: Actual official high and low records may vary slightly from our data, if they occured in-between our weather recording intervals... More about our weather records

Advertising

Liverpool Weather History for the Previous 24 Hours

Scroll right to see more
 ConditionsComfort  
Time TempWeatherWind HumidityBarometerVisibility
2:20 AM
Sat, Jul 2
50 °FScattered showers. Passing clouds.13 mph82%29.71 "HgN/A
1:50 AM52 °FClear.12 mph77%29.71 "Hg10 mi
1:20 AM52 °FClear.14 mph77%29.71 "Hg10 mi
12:50 AM52 °FScattered showers. Passing clouds.15 mph77%29.71 "HgN/A
12:20 AM52 °FPassing clouds.12 mph82%29.71 "HgN/A
11:50 PM
Fri, Jul 1
54 °FPassing clouds.12 mph77%29.71 "HgN/A
11:20 PM54 °FPassing clouds.14 mph72%29.71 "HgN/A
10:50 PM54 °FPassing clouds.10 mph77%29.71 "HgN/A
10:20 PM54 °FPassing clouds.12 mph77%29.71 "HgN/A
9:50 PM54 °FPassing clouds.9 mph77%29.71 "HgN/A
9:20 PM55 °FPassing clouds.16 mph72%29.68 "HgN/A
8:50 PM55 °FScattered showers. Scattered clouds.18 mph67%29.68 "HgN/A
8:20 PM57 °FScattered clouds.16 mph67%29.68 "HgN/A
7:50 PM57 °FScattered showers. Scattered clouds.13 mph72%29.68 "HgN/A
7:20 PM57 °FScattered showers. Passing clouds.13 mph72%29.65 "HgN/A
6:50 PM57 °FScattered showers. Scattered clouds.16 mph72%29.65 "HgN/A
6:20 PM57 °FScattered showers. Passing clouds.13 mph77%29.65 "HgN/A
5:50 PM57 °FScattered showers. Scattered clouds.16 mph72%29.65 "HgN/A
5:20 PM57 °FScattered showers. Passing clouds.14 mph72%29.65 "HgN/A
4:50 PM57 °FScattered clouds.18 mph82%29.65 "HgN/A
4:20 PM57 °FSprinkles. Scattered clouds.23 mph77%29.65 "HgN/A
3:50 PM61 °FScattered clouds.17 mph63%29.65 "HgN/A
3:20 PM61 °FScattered clouds.18 mph55%29.65 "HgN/A
2:50 PM64 °FScattered clouds.15 mph56%29.65 "HgN/A
2:20 PM61 °FScattered showers. Scattered clouds.17 mph63%29.65 "HgN/A
1:50 PM63 °FScattered clouds.12 mph64%29.65 "HgN/A
1:20 PM61 °FScattered clouds.13 mph59%29.65 "HgN/A
12:50 PM61 °FScattered clouds.10 mph59%29.68 "HgN/A
12:20 PM59 °FScattered clouds.6 mph72%29.68 "HgN/A
11:50 AM59 °FScattered showers. Partly sunny.10 mph72%29.68 "HgN/A
11:20 AM59 °FScattered showers. Partly sunny.9 mph72%29.68 "HgN/A
10:50 AM59 °FPartly sunny.9 mph77%29.68 "HgN/A
10:20 AM59 °FPartly sunny.8 mph72%29.68 "HgN/A
9:50 AM59 °FScattered clouds.9 mph68%29.68 "HgN/A
9:20 AM59 °FScattered clouds.10 mph72%29.68 "HgN/A
8:50 AM57 °FScattered clouds.12 mph77%29.68 "HgN/A
8:20 AM55 °FScattered clouds.13 mph82%29.68 "HgN/A
7:50 AM55 °FScattered clouds.13 mph94%29.68 "HgN/A
7:20 AM54 °FScattered clouds.10 mph94%29.68 "HgN/A
6:50 AM54 °FScattered showers. Scattered clouds.10 mph94%29.68 "HgN/A
6:20 AM54 °FSprinkles. Partly sunny.15 mph94%29.68 "Hg4 mi
5:50 AM55 °FSprinkles. Scattered clouds.8 mph88%29.65 "HgN/A
5:20 AM54 °FPassing clouds.7 mph94%29.65 "HgN/A
4:50 AM55 °FPassing clouds.7 mph88%29.65 "HgN/A
4:20 AM55 °FPassing clouds.10 mph88%29.65 "HgN/A
3:50 AM55 °FPassing clouds.13 mph88%29.68 "HgN/A
3:20 AM55 °FPassing clouds.13 mph94%29.68 "HgN/A
Weather by CustomWeather, © 2016

See weather overviewHow to use our weather pages